Time,TemperatureF,DewpointF,PressureIn,WindDirection,WindDirectionDegrees,WindSpeedMPH,WindSpeedGustMPH,Humidity,HourlyPrecipIn,Conditions,Clouds,dailyrainin,SolarRadiationWatts/m^2,SoftwareType,DateUTC
2013-03-30 00:00:00,46.3,42.3,30.18,East,82,0.0,0.0,86,0.00,,,0.00,0,Wunderground v.1.15,2013-03-30 07:00:00,
2013-03-30 00:10:00,46.0,42.3,30.18,East,82,0.0,0.0,87,0.00,,,0.00,0,Wunderground v.1.15,2013-03-30 07:10:00,
2013-03-30 00:15:00,45.9,42.2,30.18,East,82,0.0,0.0,87,0.00,,,0.00,0,Wunderground v.1.15,2013-03-30 07:15:00,
2013-03-30 00:20:00,45.8,42.2,30.18,East,82,0.0,0.0,87,0.00,,,0.00,0,Wunderground v.1.15,2013-03-30 07:20:00,
2013-03-30 00:25:00,45.8,42.4,30.18,East,82,0.0,0.0,88,0.00,,,0.00,0,Wunderground v.1.15,2013-03-30 07:25:00,
2013-03-30 00:30:00,45.8,42.4,30.18,East,82,0.0,0.0,88,0.00,,,0.00,0,Wunderground v.1.15,2013-03-30 07:30:00,
2013-03-30 00:35:00,45.7,42.1,30.18,East,82,0.0,0.0,87,0.00,,,0.00,0,Wunderground v.1.15,2013-03-30 07:35:00,
2013-03-30 00:40:00,45.7,42.1,30.19,East,82,0.0,0.0,87,0.00,,,0.00,0,Wunderground v.1.15,2013-03-30 07:40:00,
2013-03-30 00:50:00,45.6,42.3,30.19,East,82,0.0,0.0,88,0.00,,,0.00,0,Wunderground v.1.15,2013-03-30 07:50:00,
2013-03-30 00:55:00,45.6,42.3,30.19,East,82,0.0,0.0,88,0.00,,,0.00,0,Wunderground v.1.15,2013-03-30 07:55:00,
2013-03-30 01:00:00,45.0,41.1,30.19,East,82,0.0,0.0,86,0.00,,,0.00,0,Wunderground v.1.15,2013-03-30 08:00:00,
2013-03-30 01:10:00,44.1,41.1,30.19,East,82,0.0,0.0,89,0.00,,,0.00,0,Wunderground v.1.15,2013-03-30 08:10:00,
2013-03-30 01:20:00,42.8,39.8,30.19,East,82,0.0,0.0,89,0.00,,,0.00,0,Wunderground v.1.15,2013-03-30 08:20:00,
2013-03-30 01:25:00,42.3,39.3,30.19,East,82,0.0,0.0,89,0.00,,,0.00,0,Wunderground v.1.15,2013-03-30 08:25:00,
2013-03-30 01:30:00,42.0,39.3,30.19,East,82,0.0,0.0,90,0.00,,,0.00,0,Wunderground v.1.15,2013-03-30 08:30:00,
2013-03-30 01:34:00,41.7,39.0,30.19,East,82,0.0,0.0,90,0.00,,,0.00,0,Wunderground v.1.15,2013-03-30 08:34:00,
2013-03-30 01:40:00,41.4,38.7,30.19,East,82,0.0,0.0,90,0.00,,,0.00,0,Wunderground v.1.15,2013-03-30 08:40:00,
2013-03-30 01:45:00,40.9,37.9,30.19,ENE,77,0.0,0.0,89,0.00,,,0.00,0,Wunderground v.1.15,2013-03-30 08:45:00,
2013-03-30 01:50:00,40.5,37.5,30.19,ENE,73,0.0,0.0,89,0.00,,,0.00,0,Wunderground v.1.15,2013-03-30 08:50:00,
2013-03-30 01:55:00,40.2,37.5,30.19,ENE,68,0.0,0.0,90,0.00,,,0.00,0,Wunderground v.1.15,2013-03-30 08:55:00,
2013-03-30 02:00:00,40.2,37.8,30.19,ENE,68,0.0,0.0,91,0.00,,,0.00,0,Wunderground v.1.15,2013-03-30 09:00:00,
2013-03-30 02:10:00,40.0,37.6,30.19,ENE,67,0.0,0.0,91,0.00,,,0.00,0,Wunderground v.1.15,2013-03-30 09:10:00,
2013-03-30 02:20:00,40.0,37.6,30.19,ENE,67,0.0,0.0,91,0.00,,,0.00,0,Wunderground v.1.15,2013-03-30 09:20:00,
2013-03-30 02:25:00,40.0,37.6,30.19,ENE,67,0.0,0.0,91,0.00,,,0.00,0,Wunderground v.1.15,2013-03-30 09:25:00,
2013-03-30 02:30:00,40.1,38.0,30.19,ENE,66,0.0,0.0,92,0.00,,,0.00,0,Wunderground v.1.15,2013-03-30 09:30:00,
2013-03-30 02:35:00,40.2,38.1,30.19,ENE,66,0.0,0.0,92,0.00,,,0.00,0,Wunderground v.1.15,2013-03-30 09:35:00,
2013-03-30 02:40:00,40.2,37.8,30.19,ENE,66,0.0,0.0,91,0.00,,,0.00,0,Wunderground v.1.15,2013-03-30 09:40:00,
2013-03-30 02:45:00,40.2,38.1,30.19,ENE,66,0.0,0.0,92,0.00,,,0.00,0,Wunderground v.1.15,2013-03-30 09:45:00,
2013-03-30 02:55:00,40.5,38.4,30.19,ENE,67,0.0,0.0,92,0.00,,,0.00,0,Wunderground v.1.15,2013-03-30 09:55:00,
2013-03-30 03:00:00,40.3,37.9,30.19,ENE,66,0.0,0.0,91,0.00,,,0.00,0,Wunderground v.1.15,2013-03-30 10:00:00,
2013-03-30 03:10:00,39.7,36.7,30.19,ENE,67,0.0,0.0,89,0.00,,,0.00,0,Wunderground v.1.15,2013-03-30 10:10:00,
2013-03-30 03:15:00,39.5,36.8,30.19,ENE,66,0.0,0.0,90,0.00,,,0.00,0,Wunderground v.1.15,2013-03-30 10:15:00,
2013-03-30 03:20:00,39.4,37.0,30.19,ENE,66,0.0,0.0,91,0.00,,,0.00,0,Wunderground v.1.15,2013-03-30 10:20:00,
2013-03-30 03:29:00,39.3,37.2,30.19,ENE,59,0.0,0.0,92,0.00,,,0.00,0,Wunderground v.1.15,2013-03-30 10:29:00,
2013-03-30 03:34:00,39.2,37.1,30.19,ENE,59,0.0,0.0,92,0.00,,,0.00,0,Wunderground v.1.15,2013-03-30 10:34:00,
2013-03-30 03:39:00,39.2,37.1,30.19,ENE,58,0.0,0.0,92,0.00,,,0.00,0,Wunderground v.1.15,2013-03-30 10:39:00,
2013-03-30 03:44:00,38.9,36.5,30.19,NE,39,0.0,0.0,91,0.00,,,0.00,0,Wunderground v.1.15,2013-03-30 10:44:00,
2013-03-30 03:49:00,38.3,35.9,30.19,NW,324,1.0,2.0,91,0.00,,,0.00,0,Wunderground v.1.15,2013-03-30 10:49:00,
2013-03-30 03:54:00,38.1,36.0,30.19,NW,324,2.0,2.0,92,0.00,,,0.00,0,Wunderground v.1.15,2013-03-30 10:54:00,
2013-03-30 04:00:00,38.2,36.1,30.19,NW,324,0.0,0.0,92,0.00,,,0.00,0,Wunderground v.1.15,2013-03-30 11:00:00,
2013-03-30 04:10:00,38.2,36.1,30.19,NW,323,0.0,0.0,92,0.00,,,0.00,0,Wunderground v.1.15,2013-03-30 11:10:00,
2013-03-30 04:15:00,38.1,36.0,30.19,NW,323,0.0,0.0,92,0.00,,,0.00,0,Wunderground v.1.15,2013-03-30 11:15:00,
2013-03-30 04:20:00,38.0,35.9,30.19,NW,323,0.0,0.0,92,0.00,,,0.00,0,Wunderground v.1.15,2013-03-30 11:20:00,
2013-03-30 04:25:00,38.0,36.2,30.19,NW,323,0.0,0.0,93,0.00,,,0.00,0,Wunderground v.1.15,2013-03-30 11:25:00,
2013-03-30 04:35:00,37.7,35.6,30.19,NW,313,1.0,3.0,92,0.00,,,0.00,0,Wunderground v.1.15,2013-03-30 11:35:00,
2013-03-30 04:40:00,37.5,35.4,30.19,NW,311,1.0,1.0,92,0.00,,,0.00,0,Wunderground v.1.15,2013-03-30 11:40:00,
2013-03-30 04:45:00,37.2,35.1,30.19,NW,307,1.0,3.0,92,0.00,,,0.00,0,Wunderground v.1.15,2013-03-30 11:45:00,
2013-03-30 04:50:00,37.0,34.9,30.19,WNW,300,2.0,2.0,92,0.00,,,0.00,0,Wunderground v.1.15,2013-03-30 11:50:00,
2013-03-30 04:55:00,37.0,35.2,30.19,WNW,300,2.0,2.0,93,0.00,,,0.00,0,Wunderground v.1.15,2013-03-30 11:55:00,
2013-03-30 05:00:00,37.0,35.2,30.19,WNW,300,0.0,0.0,93,0.00,,,0.00,0,Wunderground v.1.15,2013-03-30 12:00:00,
2013-03-30 05:10:00,36.9,35.1,30.19,WNW,300,0.0,0.0,93,0.00,,,0.00,0,Wunderground v.1.15,2013-03-30 12:10:00,
2013-03-30 05:15:00,36.8,35.0,30.19,WNW,300,0.0,0.0,93,0.00,,,0.00,0,Wunderground v.1.15,2013-03-30 12:15:00,
2013-03-30 05:20:00,36.7,34.9,30.19,WNW,300,1.0,2.0,93,0.00,,,0.00,0,Wunderground v.1.15,2013-03-30 12:20:00,
2013-03-30 05:25:00,36.4,34.6,30.19,WNW,300,1.0,2.0,93,0.00,,,0.00,0,Wunderground v.1.15,2013-03-30 12:25:00,
2013-03-30 05:30:00,36.2,34.4,30.18,WNW,300,0.0,0.0,93,0.00,,,0.00,0,Wunderground v.1.15,2013-03-30 12:30:00,
2013-03-30 05:40:00,36.2,34.4,30.19,WNW,300,1.0,1.0,93,0.00,,,0.00,0,Wunderground v.1.15,2013-03-30 12:40:00,
2013-03-30 05:45:00,36.2,34.6,30.19,WNW,300,0.0,1.0,94,0.00,,,0.00,0,Wunderground v.1.15,2013-03-30 12:45:00,
2013-03-30 05:50:00,36.3,34.5,30.19,WNW,300,0.0,0.0,93,0.00,,,0.00,0,Wunderground v.1.15,2013-03-30 12:50:00,
2013-03-30 05:55:00,36.2,34.4,30.19,WNW,300,0.0,0.0,93,0.00,,,0.00,0,Wunderground v.1.15,2013-03-30 12:55:00,
2013-03-30 06:00:00,36.2,34.6,30.19,WNW,300,0.0,0.0,94,0.00,,,0.00,0,Wunderground v.1.15,2013-03-30 13:00:00,
2013-03-30 06:10:00,36.2,34.6,30.19,WNW,300,0.0,0.0,94,0.00,,,0.00,0,Wunderground v.1.15,2013-03-30 13:10:00,
2013-03-30 06:15:00,36.2,34.4,30.19,WNW,300,0.0,0.0,93,0.00,,,0.00,0,Wunderground v.1.15,2013-03-30 13:15:00,
2013-03-30 06:20:00,36.0,34.2,30.19,WNW,300,0.0,0.0,93,0.00,,,0.00,0,Wunderground v.1.15,2013-03-30 13:20:00,
2013-03-30 06:25:00,35.7,33.9,30.20,WNW,300,0.0,0.0,93,0.00,,,0.00,0,Wunderground v.1.15,2013-03-30 13:25:00,
2013-03-30 06:30:00,35.3,33.5,30.19,WNW,300,0.0,0.0,93,0.00,,,0.00,0,Wunderground v.1.15,2013-03-30 13:30:00,
2013-03-30 06:35:00,35.1,33.3,30.20,WNW,300,0.0,0.0,93,0.00,,,0.00,0,Wunderground v.1.15,2013-03-30 13:35:00,
2013-03-30 06:45:00,35.1,33.3,30.20,WNW,300,0.0,0.0,93,0.00,,,0.00,0,Wunderground v.1.15,2013-03-30 13:45:00,
2013-03-30 06:50:00,34.9,33.1,30.20,WNW,300,0.0,0.0,93,0.00,,,0.00,5,Wunderground v.1.15,2013-03-30 13:50:00,
2013-03-30 06:55:00,34.7,32.9,30.20,WNW,300,0.0,3.0,93,0.00,,,0.00,7,Wunderground v.1.15,2013-03-30 13:55:00,
2013-03-30 07:00:00,34.6,32.8,30.20,WNW,300,1.0,1.0,93,0.00,,,0.00,11,Wunderground v.1.15,2013-03-30 14:00:00,
2013-03-30 07:10:00,34.4,32.9,30.20,WNW,300,0.0,0.0,94,0.00,,,0.00,18,Wunderground v.1.15,2013-03-30 14:10:00,
2013-03-30 07:15:00,34.4,32.9,30.20,WNW,300,0.0,0.0,94,0.00,,,0.00,23,Wunderground v.1.15,2013-03-30 14:15:00,
2013-03-30 07:20:00,34.4,32.9,30.20,WNW,300,0.0,0.0,94,0.00,,,0.00,32,Wunderground v.1.15,2013-03-30 14:20:00,
2013-03-30 07:25:00,34.6,33.1,30.20,WNW,300,0.0,0.0,94,0.00,,,0.00,44,Wunderground v.1.15,2013-03-30 14:25:00,
2013-03-30 07:30:00,34.8,33.2,30.20,WNW,300,0.0,0.0,94,0.00,,,0.00,56,Wunderground v.1.15,2013-03-30 14:30:00,
2013-03-30 07:35:00,35.0,33.4,30.21,WNW,300,0.0,0.0,94,0.00,,,0.00,69,Wunderground v.1.15,2013-03-30 14:35:00,
2013-03-30 07:40:00,35.3,34.0,30.20,WNW,300,0.0,0.0,95,0.00,,,0.00,84,Wunderground v.1.15,2013-03-30 14:40:00,
2013-03-30 07:50:00,36.4,35.1,30.20,WNW,300,1.0,1.0,95,0.00,,,0.00,114,Wunderground v.1.15,2013-03-30 14:50:00,
2013-03-30 07:55:00,36.9,35.6,30.20,WNW,300,1.0,2.0,95,0.00,,,0.00,132,Wunderground v.1.15,2013-03-30 14:55:00,
2013-03-30 08:00:00,37.4,36.1,30.20,WNW,300,2.0,2.0,95,0.00,,,0.00,149,Wunderground v.1.15,2013-03-30 15:00:00,
2013-03-30 08:10:00,38.0,36.7,30.20,WNW,301,0.0,0.0,95,0.00,,,0.00,186,Wunderground v.1.15,2013-03-30 15:10:00,
2013-03-30 08:20:00,38.7,37.1,30.21,WNW,301,0.0,0.0,94,0.00,,,0.00,221,Wunderground v.1.15,2013-03-30 15:20:00,
2013-03-30 08:25:00,39.1,37.5,30.21,WNW,300,0.0,0.0,94,0.00,,,0.00,239,Wunderground v.1.15,2013-03-30 15:25:00,
2013-03-30 08:30:00,39.6,37.7,30.21,WNW,300,0.0,0.0,93,0.00,,,0.00,257,Wunderground v.1.15,2013-03-30 15:30:00,
2013-03-30 08:35:00,40.1,38.0,30.21,WNW,300,0.0,5.0,92,0.00,,,0.00,272,Wunderground v.1.15,2013-03-30 15:35:00,
2013-03-30 08:40:00,40.9,38.8,30.20,WNW,301,1.0,2.0,92,0.00,,,0.00,292,Wunderground v.1.15,2013-03-30 15:40:00,
2013-03-30 08:45:00,41.6,39.2,30.21,WNW,300,1.0,2.0,91,0.00,,,0.00,308,Wunderground v.1.15,2013-03-30 15:45:00,
2013-03-30 08:55:00,43.5,39.9,30.21,West,266,1.0,1.0,87,0.00,,,0.00,343,Wunderground v.1.15,2013-03-30 15:55:00,
2013-03-30 09:00:00,44.2,40.3,30.20,West,270,0.0,0.0,86,0.00,,,0.00,367,Wunderground v.1.15,2013-03-30 16:00:00,
2013-03-30 09:10:00,45.6,41.0,30.20,West,270,0.0,0.0,84,0.00,,,0.00,401,Wunderground v.1.15,2013-03-30 16:10:00,
2013-03-30 09:15:00,46.5,41.3,30.20,West,269,0.0,0.0,82,0.00,,,0.00,422,Wunderground v.1.15,2013-03-30 16:15:00,
2013-03-30 09:24:00,48.1,41.9,30.20,West,268,0.0,0.0,79,0.00,,,0.00,459,Wunderground v.1.15,2013-03-30 16:24:00,
2013-03-30 09:29:00,48.2,41.7,30.20,WSW,254,0.0,0.0,78,0.00,,,0.00,480,Wunderground v.1.15,2013-03-30 16:29:00,
2013-03-30 09:34:00,48.7,41.8,30.20,WSW,256,1.0,1.0,77,0.00,,,0.00,497,Wunderground v.1.15,2013-03-30 16:34:00,
2013-03-30 09:39:00,49.1,42.2,30.20,WSW,251,0.0,0.0,77,0.00,,,0.00,512,Wunderground v.1.15,2013-03-30 16:39:00,
2013-03-30 09:44:00,49.5,42.2,30.20,WSW,250,0.0,0.0,76,0.00,,,0.00,527,Wunderground v.1.15,2013-03-30 16:44:00,
2013-03-30 09:50:00,50.2,42.6,30.20,WSW,248,0.0,3.0,75,0.00,,,0.00,543,Wunderground v.1.15,2013-03-30 16:50:00,
2013-03-30 09:55:00,50.1,42.5,30.20,WSW,238,0.0,3.0,75,0.00,,,0.00,557,Wunderground v.1.15,2013-03-30 16:55:00,
2013-03-30 10:00:00,50.5,42.9,30.20,WSW,237,0.0,0.0,75,0.00,,,0.00,573,Wunderground v.1.15,2013-03-30 17:00:00,
2013-03-30 10:10:00,50.8,42.8,30.20,South,189,2.0,3.0,74,0.00,,,0.00,601,Wunderground v.1.15,2013-03-30 17:10:00,
2013-03-30 10:15:00,51.1,42.7,30.20,South,187,1.0,3.0,73,0.00,,,0.00,612,Wunderground v.1.15,2013-03-30 17:15:00,
2013-03-30 10:20:00,51.6,42.9,30.20,South,188,0.0,0.0,72,0.00,,,0.00,626,Wunderground v.1.15,2013-03-30 17:20:00,
2013-03-30 10:30:00,52.8,43.3,30.20,South,187,0.0,0.0,70,0.00,,,0.00,652,Wunderground v.1.15,2013-03-30 17:30:00,
2013-03-30 10:35:00,53.6,43.7,30.19,South,188,0.0,0.0,69,0.00,,,0.00,664,Wunderground v.1.15,2013-03-30 17:35:00,
2013-03-30 10:40:00,54.4,43.7,30.19,SSW,205,1.0,1.0,67,0.00,,,0.00,679,Wunderground v.1.15,2013-03-30 17:40:00,
2013-03-30 10:45:00,55.0,43.8,30.19,SSW,205,1.0,1.0,66,0.00,,,0.00,687,Wunderground v.1.15,2013-03-30 17:45:00,
2013-03-30 10:50:00,55.4,43.8,30.19,South,173,0.0,0.0,65,0.00,,,0.00,700,Wunderground v.1.15,2013-03-30 17:50:00,
2013-03-30 11:00:00,55.7,44.5,30.19,South,180,1.0,1.0,66,0.00,,,0.00,724,Wunderground v.1.15,2013-03-30 18:00:00,
2013-03-30 11:10:00,56.3,43.9,30.19,SSE,155,1.0,1.0,63,0.00,,,0.00,742,Wunderground v.1.15,2013-03-30 18:10:00,
2013-03-30 11:15:00,56.1,44.1,30.19,SSE,150,1.0,1.0,64,0.00,,,0.00,752,Wunderground v.1.15,2013-03-30 18:15:00,
2013-03-30 11:20:00,55.9,43.9,30.19,SE,144,1.0,1.0,64,0.00,,,0.00,761,Wunderground v.1.15,2013-03-30 18:20:00,
2013-03-30 11:25:00,56.2,45.4,30.18,SE,124,2.0,2.0,67,0.00,,,0.00,766,Wunderground v.1.15,2013-03-30 18:25:00,
2013-03-30 11:35:00,56.6,45.8,30.18,SE,146,3.0,10.0,67,0.00,,,0.00,786,Wunderground v.1.15,2013-03-30 18:35:00,
2013-03-30 11:40:00,56.5,45.3,30.18,SE,124,4.0,7.0,66,0.00,,,0.00,793,Wunderground v.1.15,2013-03-30 18:40:00,
2013-03-30 11:45:00,56.4,45.6,30.18,SE,146,6.0,7.0,67,0.00,,,0.00,800,Wunderground v.1.15,2013-03-30 18:45:00,
2013-03-30 11:50:00,57.1,45.8,30.18,East,100,4.0,8.0,66,0.00,,,0.00,805,Wunderground v.1.15,2013-03-30 18:50:00,
2013-03-30 11:55:00,57.3,45.6,30.18,SE,129,3.0,8.0,65,0.00,,,0.00,814,Wunderground v.1.15,2013-03-30 18:55:00,
2013-03-30 12:00:00,57.4,46.1,30.17,SE,146,5.0,5.0,66,0.00,,,0.00,821,Wunderground v.1.15,2013-03-30 19:00:00,
2013-03-30 12:10:00,58.6,46.5,30.17,SE,132,3.0,3.0,64,0.00,,,0.00,831,Wunderground v.1.15,2013-03-30 19:10:00,
2013-03-30 12:15:00,58.8,47.1,30.17,SSE,152,3.0,4.0,65,0.00,,,0.00,838,Wunderground v.1.15,2013-03-30 19:15:00,
2013-03-30 12:20:00,58.9,46.3,30.17,SE,146,4.0,4.0,63,0.00,,,0.00,840,Wunderground v.1.15,2013-03-30 19:20:00,
2013-03-30 12:25:00,58.8,46.6,30.17,SSE,153,6.0,6.0,64,0.00,,,0.00,849,Wunderground v.1.15,2013-03-30 19:25:00,
2013-03-30 12:30:00,59.0,46.4,30.17,ESE,105,6.0,6.0,63,0.00,,,0.00,847,Wunderground v.1.15,2013-03-30 19:30:00,
2013-03-30 12:40:00,59.6,46.1,30.16,South,182,3.0,3.0,61,0.00,,,0.00,854,Wunderground v.1.15,2013-03-30 19:40:00,
2013-03-30 12:45:00,59.7,46.7,30.16,SSE,163,3.0,3.0,62,0.00,,,0.00,858,Wunderground v.1.15,2013-03-30 19:45:00,
2013-03-30 12:50:00,59.9,47.3,30.16,SE,138,4.0,9.0,63,0.00,,,0.00,858,Wunderground v.1.15,2013-03-30 19:50:00,
2013-03-30 12:55:00,60.3,47.2,30.16,SE,146,5.0,9.0,62,0.00,,,0.00,858,Wunderground v.1.15,2013-03-30 19:55:00,
2013-03-30 13:00:00,60.3,46.8,30.15,SE,138,6.0,6.0,61,0.00,,,0.00,861,Wunderground v.1.15,2013-03-30 20:00:00,
2013-03-30 13:10:00,61.4,47.4,30.15,SE,132,6.0,7.0,60,0.00,,,0.00,858,Wunderground v.1.15,2013-03-30 20:10:00,
2013-03-30 13:15:00,61.4,47.8,30.15,SE,138,7.0,7.0,61,0.00,,,0.00,858,Wunderground v.1.15,2013-03-30 20:15:00,
2013-03-30 13:20:00,61.8,47.3,30.15,SE,140,7.0,8.0,59,0.00,,,0.00,851,Wunderground v.1.15,2013-03-30 20:20:00,
2013-03-30 13:25:00,61.6,47.6,30.15,SSE,156,6.0,8.0,60,0.00,,,0.00,858,Wunderground v.1.15,2013-03-30 20:25:00,
2013-03-30 13:30:00,61.8,47.8,30.15,SE,124,6.0,9.0,60,0.00,,,0.00,786,Wunderground v.1.15,2013-03-30 20:30:00,
2013-03-30 13:35:00,62.0,47.5,30.14,ESE,120,6.0,9.0,59,0.00,,,0.00,860,Wunderground v.1.15,2013-03-30 20:35:00,
2013-03-30 13:45:00,62.2,47.2,30.14,SE,136,7.0,7.0,58,0.00,,,0.00,840,Wunderground v.1.15,2013-03-30 20:45:00,
2013-03-30 13:50:00,62.6,47.1,30.14,SE,129,5.0,5.0,57,0.00,,,0.00,814,Wunderground v.1.15,2013-03-30 20:50:00,
2013-03-30 13:55:00,63.1,47.1,30.14,ESE,122,5.0,5.0,56,0.00,,,0.00,810,Wunderground v.1.15,2013-03-30 20:55:00,
2013-03-30 14:00:00,62.9,47.4,30.13,SE,135,6.0,7.0,57,0.00,,,0.00,821,Wunderground v.1.15,2013-03-30 21:00:00,
2013-03-30 14:10:00,63.6,47.6,30.13,SE,136,7.0,7.0,56,0.00,,,0.00,766,Wunderground v.1.15,2013-03-30 21:10:00,
2013-03-30 14:15:00,63.5,47.5,30.12,ESE,119,7.0,7.0,56,0.00,,,0.00,652,Wunderground v.1.15,2013-03-30 21:15:00,
2013-03-30 14:20:00,64.3,47.8,30.12,ESE,109,6.0,6.0,55,0.00,,,0.00,729,Wunderground v.1.15,2013-03-30 21:20:00,
2013-03-30 14:25:00,64.1,47.1,30.12,SE,128,6.0,9.0,54,0.00,,,0.00,642,Wunderground v.1.15,2013-03-30 21:25:00,
2013-03-30 14:30:00,64.0,47.5,30.11,SE,135,6.0,6.0,55,0.00,,,0.00,747,Wunderground v.1.15,2013-03-30 21:30:00,
2013-03-30 14:35:00,64.8,47.8,30.11,SE,124,5.0,9.0,54,0.00,,,0.00,742,Wunderground v.1.15,2013-03-30 21:35:00,
2013-03-30 14:40:00,64.8,47.8,30.11,SE,140,6.0,6.0,54,0.00,,,0.00,763,Wunderground v.1.15,2013-03-30 21:40:00,
2013-03-30 14:50:00,64.8,47.8,30.11,SSE,152,6.0,6.0,54,0.00,,,0.00,744,Wunderground v.1.15,2013-03-30 21:50:00,
2013-03-30 14:55:00,65.0,47.9,30.10,SSE,161,7.0,7.0,54,0.00,,,0.00,728,Wunderground v.1.15,2013-03-30 21:55:00,
2013-03-30 15:00:00,65.1,47.0,30.10,SSE,154,7.0,7.0,52,0.00,,,0.00,733,Wunderground v.1.15,2013-03-30 22:00:00,
2013-03-30 15:10:00,65.4,47.3,30.10,SE,127,7.0,7.0,52,0.00,,,0.00,691,Wunderground v.1.15,2013-03-30 22:10:00,
2013-03-30 15:19:00,65.4,46.8,30.10,SE,130,7.0,7.0,51,0.00,,,0.00,682,Wunderground v.1.15,2013-03-30 22:19:00,
2013-03-30 15:24:00,65.9,47.3,30.09,SE,130,7.0,7.0,51,0.00,,,0.00,642,Wunderground v.1.15,2013-03-30 22:24:00,
2013-03-30 15:29:00,66.5,47.8,30.09,ESE,115,5.0,5.0,51,0.00,,,0.00,673,Wunderground v.1.15,2013-03-30 22:29:00,
2013-03-30 15:34:00,66.4,46.7,30.09,SE,146,6.0,6.0,49,0.00,,,0.00,684,Wunderground v.1.15,2013-03-30 22:34:00,
2013-03-30 15:39:00,66.5,46.2,30.09,SE,140,6.0,7.0,48,0.00,,,0.00,673,Wunderground v.1.15,2013-03-30 22:39:00,
2013-03-30 15:44:00,66.3,46.0,30.08,SSE,153,7.0,7.0,48,0.00,,,0.00,663,Wunderground v.1.15,2013-03-30 22:44:00,
2013-03-30 15:50:00,66.5,45.6,30.08,SE,125,8.0,8.0,47,0.00,,,0.00,647,Wunderground v.1.15,2013-03-30 22:50:00,
2013-03-30 15:55:00,66.6,46.3,30.08,SSE,149,8.0,8.0,48,0.00,,,0.00,631,Wunderground v.1.15,2013-03-30 22:55:00,
2013-03-30 16:00:00,66.9,46.6,30.08,ESE,123,7.0,7.0,48,0.00,,,0.00,610,Wunderground v.1.15,2013-03-30 23:00:00,
2013-03-30 16:10:00,67.1,46.2,30.08,SSE,150,7.0,7.0,47,0.00,,,0.00,592,Wunderground v.1.15,2013-03-30 23:10:00,
2013-03-30 16:15:00,67.6,46.6,30.08,ESE,123,5.0,7.0,47,0.00,,,0.00,580,Wunderground v.1.15,2013-03-30 23:15:00,
2013-03-30 16:25:00,67.3,46.4,30.07,SE,131,6.0,6.0,47,0.00,,,0.00,517,Wunderground v.1.15,2013-03-30 23:25:00,
2013-03-30 16:30:00,67.1,46.2,30.07,SE,129,6.0,6.0,47,0.00,,,0.00,439,Wunderground v.1.15,2013-03-30 23:30:00,
2013-03-30 16:35:00,67.3,46.9,30.07,SSE,153,6.0,6.0,48,0.00,,,0.00,482,Wunderground v.1.15,2013-03-30 23:35:00,
2013-03-30 16:40:00,67.3,46.9,30.07,SE,132,5.0,5.0,48,0.00,,,0.00,473,Wunderground v.1.15,2013-03-30 23:40:00,
2013-03-30 16:45:00,67.4,46.5,30.07,SE,128,6.0,6.0,47,0.00,,,0.00,455,Wunderground v.1.15,2013-03-30 23:45:00,
2013-03-30 16:55:00,67.3,46.4,30.06,ESE,119,7.0,12.0,47,0.00,,,0.00,441,Wunderground v.1.15,2013-03-30 23:55:00,
2013-03-30 17:00:00,67.5,46.0,30.06,SSE,158,7.0,7.0,46,0.00,,,0.00,420,Wunderground v.1.15,2013-03-31 00:00:00,
2013-03-30 17:10:00,67.5,46.0,30.06,SSE,156,6.0,6.0,46,0.00,,,0.00,401,Wunderground v.1.15,2013-03-31 00:10:00,
2013-03-30 17:15:00,67.7,46.2,30.05,SE,144,6.0,6.0,46,0.00,,,0.00,380,Wunderground v.1.15,2013-03-31 00:15:00,
2013-03-30 17:20:00,67.7,45.6,30.05,SSE,157,5.0,5.0,45,0.00,,,0.00,366,Wunderground v.1.15,2013-03-31 00:20:00,
2013-03-30 17:30:00,67.6,45.5,30.05,SE,130,7.0,7.0,45,0.00,,,0.00,332,Wunderground v.1.15,2013-03-31 00:30:00,
2013-03-30 17:35:00,67.4,45.3,30.05,ESE,122,7.0,7.0,45,0.00,,,0.00,323,Wunderground v.1.15,2013-03-31 00:35:00,
2013-03-30 17:40:00,67.5,46.0,30.05,SE,145,8.0,8.0,46,0.00,,,0.00,313,Wunderground v.1.15,2013-03-31 00:40:00,
2013-03-30 17:45:00,67.4,45.3,30.05,SE,142,8.0,8.0,45,0.00,,,0.00,299,Wunderground v.1.15,2013-03-31 00:45:00,
2013-03-30 17:50:00,67.1,45.0,30.05,SSE,160,8.0,8.0,45,0.00,,,0.00,230,Wunderground v.1.15,2013-03-31 00:50:00,
2013-03-30 18:00:00,66.8,44.8,30.04,SE,136,7.0,11.0,45,0.00,,,0.00,179,Wunderground v.1.15,2013-03-31 01:00:00,
2013-03-30 18:10:00,66.8,44.8,30.04,SSE,157,7.0,7.0,45,0.00,,,0.00,202,Wunderground v.1.15,2013-03-31 01:10:00,
2013-03-30 18:15:00,66.8,45.3,30.04,SSE,147,6.0,7.0,46,0.00,,,0.00,171,Wunderground v.1.15,2013-03-31 01:15:00,
2013-03-30 18:20:00,66.6,44.6,30.04,ESE,122,6.0,7.0,45,0.00,,,0.00,132,Wunderground v.1.15,2013-03-31 01:20:00,
2013-03-30 18:25:00,66.3,44.3,30.04,SE,141,7.0,7.0,45,0.00,,,0.00,105,Wunderground v.1.15,2013-03-31 01:25:00,
2013-03-30 18:35:00,65.9,44.5,30.04,SE,138,7.0,7.0,46,0.00,,,0.00,54,Wunderground v.1.15,2013-03-31 01:35:00,
2013-03-30 18:40:00,65.7,44.3,30.03,SSE,155,7.0,7.0,46,0.00,,,0.00,46,Wunderground v.1.15,2013-03-31 01:40:00,
2013-03-30 18:45:00,65.5,44.2,30.04,SE,141,7.0,7.0,46,0.00,,,0.00,42,Wunderground v.1.15,2013-03-31 01:45:00,
2013-03-30 18:50:00,65.3,44.0,30.04,SE,138,7.0,7.0,46,0.00,,,0.00,37,Wunderground v.1.15,2013-03-31 01:50:00,
2013-03-30 18:55:00,65.1,43.8,30.04,SE,126,7.0,7.0,46,0.00,,,0.00,30,Wunderground v.1.15,2013-03-31 01:55:00,
2013-03-30 19:00:00,65.0,43.7,30.03,SE,130,7.0,7.0,46,0.00,,,0.00,25,Wunderground v.1.15,2013-03-31 02:00:00,
2013-03-30 19:10:00,64.5,43.8,30.03,SE,134,7.0,7.0,47,0.00,,,0.00,16,Wunderground v.1.15,2013-03-31 02:10:00,
2013-03-30 19:15:00,64.1,44.0,30.03,SE,146,7.0,7.0,48,0.00,,,0.00,12,Wunderground v.1.15,2013-03-31 02:15:00,
2013-03-30 19:24:00,63.5,44.5,30.03,SSE,157,6.0,9.0,50,0.00,,,0.00,5,Wunderground v.1.15,2013-03-31 02:24:00,
2013-03-30 19:29:00,63.1,44.7,30.03,SE,143,6.0,8.0,51,0.00,,,0.00,0,Wunderground v.1.15,2013-03-31 02:29:00,
2013-03-30 19:35:00,62.7,44.8,30.03,SE,130,6.0,8.0,52,0.00,,,0.00,0,Wunderground v.1.15,2013-03-31 02:35:00,
2013-03-30 19:40:00,62.3,44.9,30.03,SE,142,6.0,9.0,53,0.00,,,0.00,0,Wunderground v.1.15,2013-03-31 02:40:00,
2013-03-30 19:45:00,61.7,44.9,30.03,SE,132,6.0,9.0,54,0.00,,,0.00,0,Wunderground v.1.15,2013-03-31 02:45:00,
2013-03-30 19:50:00,61.5,45.2,30.03,SSE,148,6.0,6.0,55,0.00,,,0.00,0,Wunderground v.1.15,2013-03-31 02:50:00,
2013-03-30 19:55:00,61.1,45.3,30.03,SE,128,5.0,6.0,56,0.00,,,0.00,0,Wunderground v.1.15,2013-03-31 02:55:00,
2013-03-30 20:00:00,60.8,45.0,30.03,SE,134,4.0,6.0,56,0.00,,,0.00,0,Wunderground v.1.15,2013-03-31 03:00:00,
2013-03-30 20:10:00,60.6,44.8,30.03,SE,128,5.0,9.0,56,0.00,,,0.00,0,Wunderground v.1.15,2013-03-31 03:10:00,
2013-03-30 20:15:00,60.7,44.9,30.03,ESE,123,5.0,9.0,56,0.00,,,0.00,0,Wunderground v.1.15,2013-03-31 03:15:00,
2013-03-30 20:20:00,60.6,44.8,30.03,ESE,119,6.0,6.0,56,0.00,,,0.00,0,Wunderground v.1.15,2013-03-31 03:20:00,
2013-03-30 20:25:00,60.4,45.1,30.03,ESE,119,6.0,6.0,57,0.00,,,0.00,0,Wunderground v.1.15,2013-03-31 03:25:00,
2013-03-30 20:30:00,60.0,44.7,30.03,ESE,120,5.0,5.0,57,0.00,,,0.00,0,Wunderground v.1.15,2013-03-31 03:30:00,
2013-03-30 20:35:00,59.9,44.6,30.03,SE,128,4.0,6.0,57,0.00,,,0.00,0,Wunderground v.1.15,2013-03-31 03:35:00,
2013-03-30 20:45:00,59.3,44.5,30.04,ESE,118,3.0,4.0,58,0.00,,,0.00,0,Wunderground v.1.15,2013-03-31 03:45:00,
2013-03-30 20:50:00,59.2,44.4,30.04,ESE,121,4.0,5.0,58,0.00,,,0.00,0,Wunderground v.1.15,2013-03-31 03:50:00,
2013-03-30 20:55:00,59.1,44.3,30.04,ESE,116,5.0,7.0,58,0.00,,,0.00,0,Wunderground v.1.15,2013-03-31 03:55:00,
2013-03-30 21:00:00,59.3,44.5,30.04,ESE,119,6.0,6.0,58,0.00,,,0.00,0,Wunderground v.1.15,2013-03-31 04:00:00,
2013-03-30 21:05:00,58.9,44.6,30.04,ESE,121,6.0,6.0,59,0.00,,,0.00,0,Wunderground v.1.15,2013-03-31 04:05:00,
2013-03-30 21:15:00,58.1,44.7,30.04,ESE,106,2.0,5.0,61,0.00,,,0.00,0,Wunderground v.1.15,2013-03-31 04:15:00,
2013-03-30 21:20:00,58.1,44.3,30.04,ESE,117,4.0,5.0,60,0.00,,,0.00,0,Wunderground v.1.15,2013-03-31 04:20:00,
2013-03-30 21:25:00,57.8,44.0,30.04,ESE,111,6.0,6.0,60,0.00,,,0.00,0,Wunderground v.1.15,2013-03-31 04:25:00,
2013-03-30 21:30:00,57.7,43.9,30.05,ESE,115,6.0,6.0,60,0.00,,,0.00,0,Wunderground v.1.15,2013-03-31 04:30:00,
2013-03-30 21:35:00,57.4,44.1,30.05,ESE,111,6.0,6.0,61,0.00,,,0.00,0,Wunderground v.1.15,2013-03-31 04:35:00,
2013-03-30 21:40:00,57.1,43.8,30.05,ESE,112,5.0,9.0,61,0.00,,,0.00,0,Wunderground v.1.15,2013-03-31 04:40:00,
2013-03-30 21:45:00,57.0,44.1,30.05,ESE,104,6.0,9.0,62,0.00,,,0.00,0,Wunderground v.1.15,2013-03-31 04:45:00,
2013-03-30 21:50:00,56.7,44.2,30.05,ESE,109,5.0,5.0,63,0.00,,,0.00,0,Wunderground v.1.15,2013-03-31 04:50:00,
2013-03-30 21:55:00,56.5,44.0,30.05,ESE,114,4.0,6.0,63,0.00,,,0.00,0,Wunderground v.1.15,2013-03-31 04:55:00,
2013-03-30 22:00:00,56.4,44.0,30.05,ESE,117,6.0,6.0,63,0.00,,,0.00,0,Wunderground v.1.15,2013-03-31 05:00:00,
2013-03-30 22:10:00,56.0,44.0,30.04,East,92,6.0,6.0,64,0.00,,,0.00,0,Wunderground v.1.15,2013-03-31 05:10:00,
2013-03-30 22:15:00,55.7,43.7,30.04,ESE,115,4.0,8.0,64,0.00,,,0.00,0,Wunderground v.1.15,2013-03-31 05:15:00,
2013-03-30 22:20:00,55.5,43.9,30.05,ESE,115,4.0,6.0,65,0.00,,,0.00,0,Wunderground v.1.15,2013-03-31 05:20:00,
2013-03-30 22:25:00,55.4,43.8,30.05,ESE,108,5.0,6.0,65,0.00,,,0.00,0,Wunderground v.1.15,2013-03-31 05:25:00,
2013-03-30 22:30:00,55.3,43.7,30.05,ENE,69,5.0,5.0,65,0.00,,,0.00,0,Wunderground v.1.15,2013-03-31 05:30:00,
2013-03-30 22:35:00,55.2,43.6,30.04,ESE,105,4.0,8.0,65,0.00,,,0.00,0,Wunderground v.1.15,2013-03-31 05:35:00,
2013-03-30 22:40:00,55.1,43.5,30.05,ESE,112,5.0,5.0,65,0.00,,,0.00,0,Wunderground v.1.15,2013-03-31 05:40:00,
2013-03-30 22:45:00,54.8,43.7,30.04,ESE,106,5.0,5.0,66,0.00,,,0.00,0,Wunderground v.1.15,2013-03-31 05:45:00,
2013-03-30 22:55:00,54.3,43.2,30.04,ESE,118,4.0,4.0,66,0.00,,,0.00,0,Wunderground v.1.15,2013-03-31 05:55:00,
2013-03-30 23:00:00,54.2,43.1,30.04,ESE,111,4.0,4.0,66,0.00,,,0.00,0,Wunderground v.1.15,2013-03-31 06:00:00,
2013-03-30 23:10:00,53.8,43.1,30.05,East,85,1.0,1.0,67,0.00,,,0.00,0,Wunderground v.1.15,2013-03-31 06:10:00,
2013-03-30 23:15:00,53.6,42.9,30.05,East,86,0.0,1.0,67,0.00,,,0.00,0,Wunderground v.1.15,2013-03-31 06:15:00,
2013-03-30 23:25:00,53.2,42.9,30.05,ESE,105,0.0,0.0,68,0.00,,,0.00,0,Wunderground v.1.15,2013-03-31 06:25:00,
2013-03-30 23:30:00,53.0,42.7,30.05,SE,124,1.0,1.0,68,0.00,,,0.00,0,Wunderground v.1.15,2013-03-31 06:30:00,
2013-03-30 23:35:00,52.8,42.9,30.05,ESE,122,0.0,1.0,69,0.00,,,0.00,0,Wunderground v.1.15,2013-03-31 06:35:00,
2013-03-30 23:40:00,52.5,42.6,30.05,ESE,121,0.0,0.0,69,0.00,,,0.00,0,Wunderground v.1.15,2013-03-31 06:40:00,
2013-03-30 23:45:00,52.2,42.3,30.05,ESE,121,0.0,0.0,69,0.00,,,0.00,0,Wunderground v.1.15,2013-03-31 06:45:00,
2013-03-30 23:50:00,52.1,42.2,30.05,ESE,121,0.0,0.0,69,0.00,,,0.00,0,Wunderground v.1.15,2013-03-31 06:50:00,
2013-03-30 23:55:00,51.8,41.9,30.05,ESE,121,0.0,0.0,69,0.00,,,0.00,0,Wunderground v.1.15,2013-03-31 06:55:00,